owner,sensor,date,latitude,longitude,air_pressure(mBar),qcFlag 
TABS,ioos:station:wmo:42044:1,2011-12-01T00:00:00Z,26.1914,-97.0507,1018.96,11111222 
TABS,ioos:station:wmo:42044:1,2011-12-01T00:30:00Z,26.1914,-97.0507,1019.02,11111222 
TABS,ioos:station:wmo:42044:1,2011-12-01T01:00:00Z,26.1914,-97.0507,1019.19,11111222 
TABS,ioos:station:wmo:42044:1,2011-12-01T01:30:00Z,26.1914,-97.0507,1019.21,11111222 
TABS,ioos:station:wmo:42044:1,2011-12-01T02:00:00Z,26.1914,-97.0507,1019.34,11111222 
TABS,ioos:station:wmo:42044:1,2011-12-01T02:30:00Z,26.1914,-97.0507,1019.27,11111222 
TABS,ioos:station:wmo:42044:1,2011-12-01T03:00:00Z,26.1914,-97.0507,1019.17,11111222 
TABS,ioos:station:wmo:42044:1,2011-12-01T03:30:00Z,26.1914,-97.0507,1019.06,11111222 
TABS,ioos:station:wmo:42044:1,2011-12-01T04:00:00Z,26.1914,-97.0507,1019.02,11111222 
TABS,ioos:station:wmo:42044:1,2011-12-01T04:30:00Z,26.1914,-97.0507,1018.9,11111222 
TABS,ioos:station:wmo:42044:1,2011-12-01T05:00:00Z,26.1914,-97.0507,1018.86,11111222 
TABS,ioos:station:wmo:42044:1,2011-12-01T05:30:00Z,26.1914,-97.0507,1018.38,11111222 
TABS,ioos:station:wmo:42044:1,2011-12-01T06:00:00Z,26.1914,-97.0507,1018.14,11111222 
TABS,ioos:station:wmo:42044:1,2011-12-01T06:30:00Z,26.1914,-97.0507,1017.77,11111222 
TABS,ioos:station:wmo:42044:1,2011-12-01T07:00:00Z,26.1914,-97.0507,1017.49,11111222 
TABS,ioos:station:wmo:42044:1,2011-12-01T07:30:00Z,26.1914,-97.0507,1017.37,11111222 
TABS,ioos:station:wmo:42044:1,2011-12-01T08:00:00Z,26.1914,-97.0507,1017.16,11111222 
TABS,ioos:station:wmo:42044:1,2011-12-01T08:30:00Z,26.1914,-97.0507,1016.85,11111222 
TABS,ioos:station:wmo:42044:1,2011-12-01T09:00:00Z,26.1914,-97.0507,1016.76,11111222 
TABS,ioos:station:wmo:42044:1,2011-12-01T09:30:00Z,26.1914,-97.0507,1016.86,11111222 
TABS,ioos:station:wmo:42044:1,2011-12-01T10:00:00Z,26.1914,-97.0507,1016.79,11111222 
TABS,ioos:station:wmo:42044:1,2011-12-01T10:30:00Z,26.1914,-97.0507,1016.86,11111222 
TABS,ioos:station:wmo:42044:1,2011-12-01T11:00:00Z,26.1914,-97.0507,1016.86,11111222 
TABS,ioos:station:wmo:42044:1,2011-12-01T11:30:00Z,26.1914,-97.0507,1017.02,11111222 
TABS,ioos:station:wmo:42044:1,2011-12-01T12:00:00Z,26.1914,-97.0507,1017.32,11111222 
TABS,ioos:station:wmo:42044:1,2011-12-01T12:30:00Z,26.1914,-97.0507,1017.59,11111222 
TABS,ioos:station:wmo:42044:1,2011-12-01T13:00:00Z,26.1914,-97.0507,1017.89,11111222 
TABS,ioos:station:wmo:42044:1,2011-12-01T13:30:00Z,26.1914,-97.0507,1018.25,11111222 
TABS,ioos:station:wmo:42044:1,2011-12-01T14:00:00Z,26.1914,-97.0507,1018.39,11111222 
TABS,ioos:station:wmo:42044:1,2011-12-01T14:30:00Z,26.1914,-97.0507,1018.63,11111222 
TABS,ioos:station:wmo:42044:1,2011-12-01T15:00:00Z,26.1914,-97.0507,1018.92,11111222 
TABS,ioos:station:wmo:42044:1,2011-12-01T15:30:00Z,26.1914,-97.0507,1019.14,11111222 
TABS,ioos:station:wmo:42044:1,2011-12-01T16:00:00Z,26.1914,-97.0507,1019.25,11111222 
TABS,ioos:station:wmo:42044:1,2011-12-01T16:30:00Z,26.1914,-97.0507,1019.14,11111222 
TABS,ioos:station:wmo:42044:1,2011-12-01T17:00:00Z,26.1914,-97.0507,1018.95,11111222 
TABS,ioos:station:wmo:42044:1,2011-12-01T17:30:00Z,26.1914,-97.0507,1018.58,11111222 
TABS,ioos:station:wmo:42044:1,2011-12-01T18:00:00Z,26.1914,-97.0507,1018.38,11111222 
TABS,ioos:station:wmo:42044:1,2011-12-01T18:30:00Z,26.1914,-97.0507,1017.82,11111222 
TABS,ioos:station:wmo:42044:1,2011-12-01T19:00:00Z,26.1914,-97.0507,1017.31,11111222 
TABS,ioos:station:wmo:42044:1,2011-12-01T19:30:00Z,26.1914,-97.0507,1016.98,11111222 
TABS,ioos:station:wmo:42044:1,2011-12-01T20:00:00Z,26.1914,-97.0507,1016.74,11111222 
TABS,ioos:station:wmo:42044:1,2011-12-01T20:30:00Z,26.1914,-97.0507,1016.69,11111222 
TABS,ioos:station:wmo:42044:1,2011-12-01T21:00:00Z,26.1914,-97.0507,1016.71,11111222 
TABS,ioos:station:wmo:42044:1,2011-12-01T21:30:00Z,26.1914,-97.0507,1016.64,11111222 
TABS,ioos:station:wmo:42044:1,2011-12-01T22:00:00Z,26.1914,-97.0507,1016.73,11111222 
TABS,ioos:station:wmo:42044:1,2011-12-01T22:30:00Z,26.1914,-97.0507,1016.8,11111222 
TABS,ioos:station:wmo:42044:1,2011-12-01T23:00:00Z,26.1914,-97.0507,1016.91,11111222 
TABS,ioos:station:wmo:42044:1,2011-12-01T23:30:00Z,26.1914,-97.0507,1017.2,11111222 
TABS,ioos:station:wmo:42044:1,2011-12-02T00:00:00Z,26.1914,-97.0507,1017.43,11111222 
TABS,ioos:station:wmo:42044:1,2011-12-02T00:30:00Z,26.1914,-97.0507,1018.01,11111222 
TABS,ioos:station:wmo:42044:1,2011-12-02T01:00:00Z,26.1914,-97.0507,1018.44,11111222 
TABS,ioos:station:wmo:42044:1,2011-12-02T01:30:00Z,26.1914,-97.0507,1018.86,11111222 
TABS,ioos:station:wmo:42044:1,2011-12-02T02:00:00Z,26.1914,-97.0507,1019.34,11111222 
TABS,ioos:station:wmo:42044:1,2011-12-02T02:30:00Z,26.1914,-97.0507,1019.51,11111222 
TABS,ioos:station:wmo:42044:1,2011-12-02T03:00:00Z,26.1914,-97.0507,1019.71,11111222 
TABS,ioos:station:wmo:42044:1,2011-12-02T03:30:00Z,26.1914,-97.0507,1019.87,11111222 
TABS,ioos:station:wmo:42044:1,2011-12-02T04:00:00Z,26.1914,-97.0507,1019.89,11111222 
TABS,ioos:station:wmo:42044:1,2011-12-02T04:30:00Z,26.1914,-97.0507,1020.02,11111222 
TABS,ioos:station:wmo:42044:1,2011-12-02T05:00:00Z,26.1914,-97.0507,1020.04,11111222 
TABS,ioos:station:wmo:42044:1,2011-12-02T05:30:00Z,26.1914,-97.0507,1019.99,11111222 
TABS,ioos:station:wmo:42044:1,2011-12-02T06:00:00Z,26.1914,-97.0507,1019.64,11111222 
TABS,ioos:station:wmo:42044:1,2011-12-02T06:30:00Z,26.1914,-97.0507,1019.54,11111222 
TABS,ioos:station:wmo:42044:1,2011-12-02T07:00:00Z,26.1914,-97.0507,1019.42,11111222 
TABS,ioos:station:wmo:42044:1,2011-12-02T07:30:00Z,26.1914,-97.0507,1019.22,11111222 
TABS,ioos:station:wmo:42044:1,2011-12-02T08:00:00Z,26.1914,-97.0507,1019.38,11111222 
TABS,ioos:station:wmo:42044:1,2011-12-02T08:30:00Z,26.1914,-97.0507,1019.31,11111222 
TABS,ioos:station:wmo:42044:1,2011-12-02T09:00:00Z,26.1914,-97.0507,1019.51,11111222 
TABS,ioos:station:wmo:42044:1,2011-12-02T09:30:00Z,26.1914,-97.0507,1019.24,11111222 
TABS,ioos:station:wmo:42044:1,2011-12-02T10:00:00Z,26.1914,-97.0507,1019.66,11111222 
TABS,ioos:station:wmo:42044:1,2011-12-02T10:30:00Z,26.1914,-97.0507,1019.44,11111222 
TABS,ioos:station:wmo:42044:1,2011-12-02T11:00:00Z,26.1914,-97.0507,1019.65,11111222 
TABS,ioos:station:wmo:42044:1,2011-12-02T11:30:00Z,26.1914,-97.0507,1019.82,11111222 
TABS,ioos:station:wmo:42044:1,2011-12-02T12:00:00Z,26.1914,-97.0507,1019.96,11111222 
TABS,ioos:station:wmo:42044:1,2011-12-02T12:30:00Z,26.1914,-97.0507,1020.18,11111222 
TABS,ioos:station:wmo:42044:1,2011-12-02T13:00:00Z,26.1914,-97.0507,1020.59,11111222 
TABS,ioos:station:wmo:42044:1,2011-12-02T13:30:00Z,26.1914,-97.0507,1021.33,11111222 
TABS,ioos:station:wmo:42044:1,2011-12-02T14:00:00Z,26.1914,-97.0507,1021.49,11111222 
TABS,ioos:station:wmo:42044:1,2011-12-02T14:30:00Z,26.1914,-97.0507,1021.57,11111222 
TABS,ioos:station:wmo:42044:1,2011-12-02T15:00:00Z,26.1914,-97.0507,1021.97,11111222 
TABS,ioos:station:wmo:42044:1,2011-12-02T15:30:00Z,26.1914,-97.0507,1021.91,11111222 
TABS,ioos:station:wmo:42044:1,2011-12-02T16:00:00Z,26.1914,-97.0507,1022.11,11111222 
TABS,ioos:station:wmo:42044:1,2011-12-02T16:30:00Z,26.1914,-97.0507,1022.12,11111222 
TABS,ioos:station:wmo:42044:1,2011-12-02T17:00:00Z,26.1914,-97.0507,1021.82,11111222 
TABS,ioos:station:wmo:42044:1,2011-12-02T17:30:00Z,26.1914,-97.0507,1021.55,11111222 
TABS,ioos:station:wmo:42044:1,2011-12-02T18:00:00Z,26.1914,-97.0507,1021.37,11111222 
TABS,ioos:station:wmo:42044:1,2011-12-02T18:30:00Z,26.1914,-97.0507,1020.58,11111222 
TABS,ioos:station:wmo:42044:1,2011-12-02T19:00:00Z,26.1914,-97.0507,1020.16,11111222 
TABS,ioos:station:wmo:42044:1,2011-12-02T19:30:00Z,26.1914,-97.0507,1019.76,11111222 
TABS,ioos:station:wmo:42044:1,2011-12-02T20:00:00Z,26.1914,-97.0507,1019.4,11111222 
TABS,ioos:station:wmo:42044:1,2011-12-02T20:30:00Z,26.1914,-97.0507,1019.17,11111222 
TABS,ioos:station:wmo:42044:1,2011-12-02T21:00:00Z,26.1914,-97.0507,1018.91,11111222 
TABS,ioos:station:wmo:42044:1,2011-12-02T21:30:00Z,26.1914,-97.0507,1018.89,11111222 
TABS,ioos:station:wmo:42044:1,2011-12-02T22:00:00Z,26.1914,-97.0507,1018.79,11111222 
TABS,ioos:station:wmo:42044:1,2011-12-02T22:30:00Z,26.1914,-97.0507,1018.86,11111222 
TABS,ioos:station:wmo:42044:1,2011-12-02T23:00:00Z,26.1914,-97.0507,1019.09,11111222 
TABS,ioos:station:wmo:42044:1,2011-12-02T23:30:00Z,26.1914,-97.0507,1018.91,11111222 
TABS,ioos:station:wmo:42044:1,2011-12-03T00:00:00Z,26.1914,-97.0507,1018.81,11111222 
TABS,ioos:station:wmo:42044:1,2011-12-03T00:30:00Z,26.1914,-97.0507,1019.14,11111222 
TABS,ioos:station:wmo:42044:1,2011-12-03T01:00:00Z,26.1914,-97.0507,1019.21,11111222 
TABS,ioos:station:wmo:42044:1,2011-12-03T01:30:00Z,26.1914,-97.0507,1019.35,11111222 
TABS,ioos:station:wmo:42044:1,2011-12-03T02:00:00Z,26.1914,-97.0507,1019.59,11111222 
TABS,ioos:station:wmo:42044:1,2011-12-03T02:30:00Z,26.1914,-97.0507,1019.66,11111222 
TABS,ioos:station:wmo:42044:1,2011-12-03T03:00:00Z,26.1914,-97.0507,1019.64,11111222 
TABS,ioos:station:wmo:42044:1,2011-12-03T03:30:00Z,26.1914,-97.0507,1019.69,11111222 
TABS,ioos:station:wmo:42044:1,2011-12-03T04:00:00Z,26.1914,-97.0507,1019.41,11111222 
TABS,ioos:station:wmo:42044:1,2011-12-03T04:30:00Z,26.1914,-97.0507,1019.34,11111222 
TABS,ioos:station:wmo:42044:1,2011-12-03T05:00:00Z,26.1914,-97.0507,1018.82,11111222 
TABS,ioos:station:wmo:42044:1,2011-12-03T05:30:00Z,26.1914,-97.0507,1018.24,11111222 
TABS,ioos:station:wmo:42044:1,2011-12-03T06:00:00Z,26.1914,-97.0507,1017.96,11111222 
TABS,ioos:station:wmo:42044:1,2011-12-03T06:30:00Z,26.1914,-97.0507,1017.54,11111222 
TABS,ioos:station:wmo:42044:1,2011-12-03T07:00:00Z,26.1914,-97.0507,1017.26,11111222 
TABS,ioos:station:wmo:42044:1,2011-12-03T07:30:00Z,26.1914,-97.0507,1017.22,11111222 
TABS,ioos:station:wmo:42044:1,2011-12-03T08:00:00Z,26.1914,-97.0507,1017.03,11111222 
TABS,ioos:station:wmo:42044:1,2011-12-03T08:30:00Z,26.1914,-97.0507,1016.28,11111222 
TABS,ioos:station:wmo:42044:1,2011-12-03T09:00:00Z,26.1914,-97.0507,1016.05,11111222 
TABS,ioos:station:wmo:42044:1,2011-12-03T09:30:00Z,26.1914,-97.0507,1016.22,11111222 
TABS,ioos:station:wmo:42044:1,2011-12-03T10:00:00Z,26.1914,-97.0507,1016.0,11111222 
TABS,ioos:station:wmo:42044:1,2011-12-03T10:30:00Z,26.1914,-97.0507,1015.9,11111222 
TABS,ioos:station:wmo:42044:1,2011-12-03T11:00:00Z,26.1914,-97.0507,1015.6,11111222 
TABS,ioos:station:wmo:42044:1,2011-12-03T11:30:00Z,26.1914,-97.0507,1015.88,11111222 
TABS,ioos:station:wmo:42044:1,2011-12-03T12:00:00Z,26.1914,-97.0507,1015.93,11111222 
TABS,ioos:station:wmo:42044:1,2011-12-03T12:30:00Z,26.1914,-97.0507,1016.01,11111222 
TABS,ioos:station:wmo:42044:1,2011-12-03T13:00:00Z,26.1914,-97.0507,1015.74,11111222 
TABS,ioos:station:wmo:42044:1,2011-12-03T13:30:00Z,26.1914,-97.0507,1016.03,11111222 
TABS,ioos:station:wmo:42044:1,2011-12-03T14:00:00Z,26.1914,-97.0507,1016.29,11111222 
TABS,ioos:station:wmo:42044:1,2011-12-03T14:30:00Z,26.1914,-97.0507,1016.85,11111222 
TABS,ioos:station:wmo:42044:1,2011-12-03T15:00:00Z,26.1914,-97.0507,1016.84,11111222 
TABS,ioos:station:wmo:42044:1,2011-12-03T15:30:00Z,26.1914,-97.0507,1016.88,11111222 
TABS,ioos:station:wmo:42044:1,2011-12-03T16:00:00Z,26.1914,-97.0507,1016.93,11111222 
TABS,ioos:station:wmo:42044:1,2011-12-03T16:30:00Z,26.1914,-97.0507,1017.09,11111222 
TABS,ioos:station:wmo:42044:1,2011-12-03T17:00:00Z,26.1914,-97.0507,1016.73,11111222 
TABS,ioos:station:wmo:42044:1,2011-12-03T17:30:00Z,26.1914,-97.0507,1016.72,11111222 
TABS,ioos:station:wmo:42044:1,2011-12-03T18:00:00Z,26.1914,-97.0507,1016.05,11111222 
TABS,ioos:station:wmo:42044:1,2011-12-03T18:30:00Z,26.1914,-97.0507,1015.65,11111222 
TABS,ioos:station:wmo:42044:1,2011-12-03T19:00:00Z,26.1914,-97.0507,1015.03,11111222 
TABS,ioos:station:wmo:42044:1,2011-12-03T19:30:00Z,26.1914,-97.0507,1014.2,11111222 
TABS,ioos:station:wmo:42044:1,2011-12-03T20:00:00Z,26.1914,-97.0507,1013.78,11111222 
TABS,ioos:station:wmo:42044:1,2011-12-03T20:30:00Z,26.1914,-97.0507,1013.76,11111222 
TABS,ioos:station:wmo:42044:1,2011-12-03T21:00:00Z,26.1914,-97.0507,1013.53,11111222 
TABS,ioos:station:wmo:42044:1,2011-12-03T21:30:00Z,26.1914,-97.0507,1013.62,11111222 
TABS,ioos:station:wmo:42044:1,2011-12-03T22:00:00Z,26.1914,-97.0507,1013.55,11111222 
TABS,ioos:station:wmo:42044:1,2011-12-03T22:30:00Z,26.1914,-97.0507,1013.53,11111222 
TABS,ioos:station:wmo:42044:1,2011-12-03T23:00:00Z,26.1914,-97.0507,1013.71,11111222 
TABS,ioos:station:wmo:42044:1,2011-12-03T23:30:00Z,26.1914,-97.0507,1013.63,11111222 
TABS,ioos:station:wmo:42044:1,2011-12-04T00:00:00Z,26.1914,-97.0507,1013.94,11111222 
TABS,ioos:station:wmo:42044:1,2011-12-04T00:30:00Z,26.1914,-97.0507,1014.37,11111222 
TABS,ioos:station:wmo:42044:1,2011-12-04T01:00:00Z,26.1914,-97.0507,1014.59,11111222 
TABS,ioos:station:wmo:42044:1,2011-12-04T01:30:00Z,26.1914,-97.0507,1014.76,11111222 
TABS,ioos:station:wmo:42044:1,2011-12-04T02:00:00Z,26.1914,-97.0507,1015.03,11111222 
TABS,ioos:station:wmo:42044:1,2011-12-04T02:30:00Z,26.1914,-97.0507,1015.36,11111222 
TABS,ioos:station:wmo:42044:1,2011-12-04T03:00:00Z,26.1914,-97.0507,1015.5,11111222 
TABS,ioos:station:wmo:42044:1,2011-12-04T03:30:00Z,26.1914,-97.0507,1015.3,11111222 
TABS,ioos:station:wmo:42044:1,2011-12-04T04:00:00Z,26.1914,-97.0507,1015.04,11111222 
TABS,ioos:station:wmo:42044:1,2011-12-04T04:30:00Z,26.1914,-97.0507,1014.64,11111222 
TABS,ioos:station:wmo:42044:1,2011-12-04T05:00:00Z,26.1914,-97.0507,1014.33,11111222 
TABS,ioos:station:wmo:42044:1,2011-12-04T05:30:00Z,26.1914,-97.0507,1014.67,11111222 
TABS,ioos:station:wmo:42044:1,2011-12-04T06:00:00Z,26.1914,-97.0507,1014.47,11111222 
TABS,ioos:station:wmo:42044:1,2011-12-04T06:30:00Z,26.1914,-97.0507,1014.41,11111222 
TABS,ioos:station:wmo:42044:1,2011-12-04T07:00:00Z,26.1914,-97.0507,1014.68,11111222 
TABS,ioos:station:wmo:42044:1,2011-12-04T07:30:00Z,26.1914,-97.0507,1014.76,11111222 
TABS,ioos:station:wmo:42044:1,2011-12-04T08:00:00Z,26.1914,-97.0507,1014.11,11111222 
TABS,ioos:station:wmo:42044:1,2011-12-04T08:30:00Z,26.1914,-97.0507,1013.82,11111222 
TABS,ioos:station:wmo:42044:1,2011-12-04T09:00:00Z,26.1914,-97.0507,1013.73,11111222 
TABS,ioos:station:wmo:42044:1,2011-12-04T09:30:00Z,26.1914,-97.0507,1013.66,11111222 
TABS,ioos:station:wmo:42044:1,2011-12-04T10:00:00Z,26.1914,-97.0507,1013.27,11111222 
TABS,ioos:station:wmo:42044:1,2011-12-04T10:30:00Z,26.1914,-97.0507,1013.18,11111222 
TABS,ioos:station:wmo:42044:1,2011-12-04T11:00:00Z,26.1914,-97.0507,1013.13,11111222 
TABS,ioos:station:wmo:42044:1,2011-12-04T11:30:00Z,26.1914,-97.0507,1013.17,11111222 
TABS,ioos:station:wmo:42044:1,2011-12-04T12:00:00Z,26.1914,-97.0507,1013.38,11111222 
TABS,ioos:station:wmo:42044:1,2011-12-04T12:30:00Z,26.1914,-97.0507,1013.72,11111222 
TABS,ioos:station:wmo:42044:1,2011-12-04T13:00:00Z,26.1914,-97.0507,1013.78,11111222 
TABS,ioos:station:wmo:42044:1,2011-12-04T13:30:00Z,26.1914,-97.0507,1013.85,11111222 
TABS,ioos:station:wmo:42044:1,2011-12-04T14:00:00Z,26.1914,-97.0507,1014.07,11111222 
TABS,ioos:station:wmo:42044:1,2011-12-04T14:30:00Z,26.1914,-97.0507,1014.0,11111222 
TABS,ioos:station:wmo:42044:1,2011-12-04T15:00:00Z,26.1914,-97.0507,1014.35,11111222 
TABS,ioos:station:wmo:42044:1,2011-12-04T15:30:00Z,26.1914,-97.0507,1014.29,11111222 
TABS,ioos:station:wmo:42044:1,2011-12-04T16:00:00Z,26.1914,-97.0507,1014.28,11111222 
TABS,ioos:station:wmo:42044:1,2011-12-04T16:30:00Z,26.1914,-97.0507,1014.04,11111222 
TABS,ioos:station:wmo:42044:1,2011-12-04T17:00:00Z,26.1914,-97.0507,1013.75,11111222 
TABS,ioos:station:wmo:42044:1,2011-12-04T17:30:00Z,26.1914,-97.0507,1013.32,11111222 
TABS,ioos:station:wmo:42044:1,2011-12-04T18:00:00Z,26.1914,-97.0507,1013.0,11111222 
TABS,ioos:station:wmo:42044:1,2011-12-04T18:30:00Z,26.1914,-97.0507,1012.7,11111222 
TABS,ioos:station:wmo:42044:1,2011-12-04T19:00:00Z,26.1914,-97.0507,1012.12,11111222 
TABS,ioos:station:wmo:42044:1,2011-12-04T19:30:00Z,26.1914,-97.0507,1011.69,11111222 
TABS,ioos:station:wmo:42044:1,2011-12-04T20:00:00Z,26.1914,-97.0507,1011.15,11111222 
TABS,ioos:station:wmo:42044:1,2011-12-04T20:30:00Z,26.1914,-97.0507,1010.93,11111222 
TABS,ioos:station:wmo:42044:1,2011-12-04T21:00:00Z,26.1914,-97.0507,1010.96,11111222 
TABS,ioos:station:wmo:42044:1,2011-12-04T21:30:00Z,26.1914,-97.0507,1010.59,11111222 
TABS,ioos:station:wmo:42044:1,2011-12-04T22:00:00Z,26.1914,-97.0507,1010.44,11111222 
TABS,ioos:station:wmo:42044:1,2011-12-04T22:30:00Z,26.1914,-97.0507,1010.33,11111222 
TABS,ioos:station:wmo:42044:1,2011-12-04T23:00:00Z,26.1914,-97.0507,1010.2,11111222 
TABS,ioos:station:wmo:42044:1,2011-12-04T23:30:00Z,26.1914,-97.0507,1010.41,11111222 
TABS,ioos:station:wmo:42044:1,2011-12-05T00:00:00Z,26.1914,-97.0507,1010.55,11111222 
TABS,ioos:station:wmo:42044:1,2011-12-05T00:30:00Z,26.1914,-97.0507,1010.87,11111222 
TABS,ioos:station:wmo:42044:1,2011-12-05T01:00:00Z,26.1914,-97.0507,1011.22,11111222 
TABS,ioos:station:wmo:42044:1,2011-12-05T01:30:00Z,26.1914,-97.0507,1011.47,11111222 
TABS,ioos:station:wmo:42044:1,2011-12-05T02:00:00Z,26.1914,-97.0507,1011.63,11111222 
TABS,ioos:station:wmo:42044:1,2011-12-05T02:30:00Z,26.1914,-97.0507,1011.37,11111222 
TABS,ioos:station:wmo:42044:1,2011-12-05T03:00:00Z,26.1914,-97.0507,1011.41,11111222 
TABS,ioos:station:wmo:42044:1,2011-12-05T03:30:00Z,26.1914,-97.0507,1011.44,11111222 
TABS,ioos:station:wmo:42044:1,2011-12-05T04:00:00Z,26.1914,-97.0507,1011.71,11111222 
TABS,ioos:station:wmo:42044:1,2011-12-05T04:30:00Z,26.1914,-97.0507,1011.76,11111222 
TABS,ioos:station:wmo:42044:1,2011-12-05T05:00:00Z,26.1914,-97.0507,1011.57,11111222 
TABS,ioos:station:wmo:42044:1,2011-12-05T05:30:00Z,26.1914,-97.0507,1011.34,11111222 
TABS,ioos:station:wmo:42044:1,2011-12-05T06:00:00Z,26.1914,-97.0507,1011.04,11111222 
TABS,ioos:station:wmo:42044:1,2011-12-05T06:30:00Z,26.1914,-97.0507,1011.1,11111222 
TABS,ioos:station:wmo:42044:1,2011-12-05T07:00:00Z,26.1914,-97.0507,1010.96,11111222 
TABS,ioos:station:wmo:42044:1,2011-12-05T07:30:00Z,26.1914,-97.0507,1010.67,11111222 
TABS,ioos:station:wmo:42044:1,2011-12-05T08:00:00Z,26.1914,-97.0507,1010.61,11111222 
TABS,ioos:station:wmo:42044:1,2011-12-05T08:30:00Z,26.1914,-97.0507,1010.64,11111222 
TABS,ioos:station:wmo:42044:1,2011-12-05T09:00:00Z,26.1914,-97.0507,1010.51,11111222 
TABS,ioos:station:wmo:42044:1,2011-12-05T09:30:00Z,26.1914,-97.0507,1010.65,11111222 
TABS,ioos:station:wmo:42044:1,2011-12-05T10:00:00Z,26.1914,-97.0507,1011.07,11111222 
TABS,ioos:station:wmo:42044:1,2011-12-05T10:30:00Z,26.1914,-97.0507,1011.73,11111222 
TABS,ioos:station:wmo:42044:1,2011-12-05T11:00:00Z,26.1914,-97.0507,1012.08,11111222 
TABS,ioos:station:wmo:42044:1,2011-12-05T11:30:00Z,26.1914,-97.0507,1013.01,11111222 
TABS,ioos:station:wmo:42044:1,2011-12-05T12:00:00Z,26.1914,-97.0507,1013.75,11111222 
TABS,ioos:station:wmo:42044:1,2011-12-05T12:30:00Z,26.1914,-97.0507,1014.4,11111222 
TABS,ioos:station:wmo:42044:1,2011-12-05T13:00:00Z,26.1914,-97.0507,1014.87,11111222 
TABS,ioos:station:wmo:42044:1,2011-12-05T13:30:00Z,26.1914,-97.0507,1015.76,11111222 
TABS,ioos:station:wmo:42044:1,2011-12-05T14:00:00Z,26.1914,-97.0507,1016.15,11111222 
TABS,ioos:station:wmo:42044:1,2011-12-05T14:30:00Z,26.1914,-97.0507,1016.35,11111222 
TABS,ioos:station:wmo:42044:1,2011-12-05T15:00:00Z,26.1914,-97.0507,1016.7,11111222 
TABS,ioos:station:wmo:42044:1,2011-12-05T15:30:00Z,26.1914,-97.0507,1017.43,11111222 
TABS,ioos:station:wmo:42044:1,2011-12-05T16:00:00Z,26.1914,-97.0507,1018.01,11111222 
TABS,ioos:station:wmo:42044:1,2011-12-05T16:30:00Z,26.1914,-97.0507,1018.31,11111222 
TABS,ioos:station:wmo:42044:1,2011-12-05T17:00:00Z,26.1914,-97.0507,1018.03,11111222 
TABS,ioos:station:wmo:42044:1,2011-12-05T17:30:00Z,26.1914,-97.0507,1018.32,11111222 
TABS,ioos:station:wmo:42044:1,2011-12-05T18:00:00Z,26.1914,-97.0507,1017.95,11111222 
TABS,ioos:station:wmo:42044:1,2011-12-05T18:30:00Z,26.1914,-97.0507,1017.44,11111222 
TABS,ioos:station:wmo:42044:1,2011-12-05T19:00:00Z,26.1914,-97.0507,1017.59,11111222 
TABS,ioos:station:wmo:42044:1,2011-12-05T19:30:00Z,26.1914,-97.0507,1017.08,11111222 
TABS,ioos:station:wmo:42044:1,2011-12-05T20:00:00Z,26.1914,-97.0507,1016.81,11111222 
TABS,ioos:station:wmo:42044:1,2011-12-05T20:30:00Z,26.1914,-97.0507,1017.06,11111222 
TABS,ioos:station:wmo:42044:1,2011-12-05T21:00:00Z,26.1914,-97.0507,1016.55,11111222 
TABS,ioos:station:wmo:42044:1,2011-12-05T21:30:00Z,26.1914,-97.0507,1016.89,11111222 
TABS,ioos:station:wmo:42044:1,2011-12-05T22:00:00Z,26.1914,-97.0507,1017.23,11111222 
TABS,ioos:station:wmo:42044:1,2011-12-05T22:30:00Z,26.1914,-97.0507,1017.5,11111222 
TABS,ioos:station:wmo:42044:1,2011-12-05T23:00:00Z,26.1914,-97.0507,1017.31,11111222 
TABS,ioos:station:wmo:42044:1,2011-12-05T23:30:00Z,26.1914,-97.0507,1018.06,11111222 
TABS,ioos:station:wmo:42044:1,2011-12-06T00:00:00Z,26.1914,-97.0507,1018.5,11111222 
TABS,ioos:station:wmo:42044:1,2011-12-06T00:30:00Z,26.1914,-97.0507,1018.62,11111222 
TABS,ioos:station:wmo:42044:1,2011-12-06T01:00:00Z,26.1914,-97.0507,1019.45,11111222 
TABS,ioos:station:wmo:42044:1,2011-12-06T01:30:00Z,26.1914,-97.0507,1019.5,11111222 
TABS,ioos:station:wmo:42044:1,2011-12-06T02:00:00Z,26.1914,-97.0507,1019.82,11111222 
TABS,ioos:station:wmo:42044:1,2011-12-06T02:30:00Z,26.1914,-97.0507,1020.24,11111222 
TABS,ioos:station:wmo:42044:1,2011-12-06T03:00:00Z,26.1914,-97.0507,1020.34,11111222 
TABS,ioos:station:wmo:42044:1,2011-12-06T03:30:00Z,26.1914,-97.0507,1020.34,11111222 
TABS,ioos:station:wmo:42044:1,2011-12-06T04:00:00Z,26.1914,-97.0507,1020.78,11111222 
TABS,ioos:station:wmo:42044:1,2011-12-06T04:30:00Z,26.1914,-97.0507,1020.63,11111222 
TABS,ioos:station:wmo:42044:1,2011-12-06T05:00:00Z,26.1914,-97.0507,1020.84,11111222 
TABS,ioos:station:wmo:42044:1,2011-12-06T05:30:00Z,26.1914,-97.0507,1020.74,11111222 
TABS,ioos:station:wmo:42044:1,2011-12-06T06:00:00Z,26.1914,-97.0507,1020.84,11111222 
TABS,ioos:station:wmo:42044:1,2011-12-06T06:30:00Z,26.1914,-97.0507,1020.4,11111222 
TABS,ioos:station:wmo:42044:1,2011-12-06T07:00:00Z,26.1914,-97.0507,1020.84,11111222 
TABS,ioos:station:wmo:42044:1,2011-12-06T07:30:00Z,26.1914,-97.0507,1020.81,11111222 
TABS,ioos:station:wmo:42044:1,2011-12-06T08:00:00Z,26.1914,-97.0507,1020.65,11111222 
TABS,ioos:station:wmo:42044:1,2011-12-06T08:30:00Z,26.1914,-97.0507,1020.39,11111222 
TABS,ioos:station:wmo:42044:1,2011-12-06T09:00:00Z,26.1914,-97.0507,1020.74,11111222 
TABS,ioos:station:wmo:42044:1,2011-12-06T09:30:00Z,26.1914,-97.0507,1020.89,11111222 
TABS,ioos:station:wmo:42044:1,2011-12-06T10:00:00Z,26.1914,-97.0507,1021.17,11111222 
TABS,ioos:station:wmo:42044:1,2011-12-06T10:30:00Z,26.1914,-97.0507,1021.41,11111222 
TABS,ioos:station:wmo:42044:1,2011-12-06T11:00:00Z,26.1914,-97.0507,1021.58,11111222 
TABS,ioos:station:wmo:42044:1,2011-12-06T11:30:00Z,26.1914,-97.0507,1021.92,11111222 
TABS,ioos:station:wmo:42044:1,2011-12-06T12:00:00Z,26.1914,-97.0507,1022.53,11111222 
TABS,ioos:station:wmo:42044:1,2011-12-06T12:30:00Z,26.1914,-97.0507,1022.7,11111222 
TABS,ioos:station:wmo:42044:1,2011-12-06T13:00:00Z,26.1914,-97.0507,1022.96,11111222 
TABS,ioos:station:wmo:42044:1,2011-12-06T13:30:00Z,26.1914,-97.0507,1023.52,11111222 
TABS,ioos:station:wmo:42044:1,2011-12-06T14:00:00Z,26.1914,-97.0507,1023.96,11111222 
TABS,ioos:station:wmo:42044:1,2011-12-06T14:30:00Z,26.1914,-97.0507,1024.23,11111222 
TABS,ioos:station:wmo:42044:1,2011-12-06T15:00:00Z,26.1914,-97.0507,1024.98,11111222 
TABS,ioos:station:wmo:42044:1,2011-12-06T15:30:00Z,26.1914,-97.0507,1025.06,11111222 
TABS,ioos:station:wmo:42044:1,2011-12-06T16:00:00Z,26.1914,-97.0507,1025.02,11111222 
TABS,ioos:station:wmo:42044:1,2011-12-06T16:30:00Z,26.1914,-97.0507,1025.38,11111222 
TABS,ioos:station:wmo:42044:1,2011-12-06T17:00:00Z,26.1914,-97.0507,1025.14,11111222 
TABS,ioos:station:wmo:42044:1,2011-12-06T17:30:00Z,26.1914,-97.0507,1024.92,11111222 
TABS,ioos:station:wmo:42044:1,2011-12-06T18:00:00Z,26.1914,-97.0507,1024.47,11111222 
TABS,ioos:station:wmo:42044:1,2011-12-06T18:30:00Z,26.1914,-97.0507,1024.48,11111222 